Location: Alvediston
(51.0078°N, 2.0364°W)
Time: 01:01:46
(UTC+00:00)

STARLINK-1048 - Pass Details

Date: 27 February 2020
Orbit: 549 x 551 km, 53.0° (Epoch: 04 April)

Event Time Altitude Azimuth Distance (km) Brightness Sun altitude
Rises 18:45:52 0° 271° (W) 2,721 9.5 -10.4°
Reaches altitude 10° 18:48:07 10° 274° (W) 1,828 7.9 -10.7°
Maximum altitude 18:52:15 65° 357° (N) 608 3.8 -11.4°
Enters shadow 18:55:20 17° 77° (ENE) 1,426 5.1 -11.9°
